Location: Newark
(41.0400°S, 62.7845°W)
Time: 22:15:05
(UTC+00:00)

Courier 1B - Visible Passes

Search period start: 06 December 2021 00:00
Search period end: 16 December 2021 00:00
Orbit: 962 x 1209 km, 28.3° (Epoch: 06 December)

Date Brightness Start Highest point End Pass type
(mag) Time Alt. Az. Time Alt. Az. Time Alt. Az.
06 Dec 9.1 07:33:37 10° NNW 07:38:07 19° NNE 07:42:46 10° ENE visible
07 Dec 9.2 06:42:50 14° N 06:44:38 16° NNE 06:48:24 10° NE visible
08 Dec 9.5 05:52:13 12° NE 05:52:13 12° NE 05:53:33 10° NE visible
08 Dec 8.8 07:39:05 10° NW 07:44:06 24° N 07:49:23 10° ENE visible
09 Dec 8.8 06:48:28 18° N 06:50:35 21° NNE 06:55:24 10° ENE visible
10 Dec 9.0 05:57:51 17° NNE 05:57:51 17° NNE 06:01:18 10° ENE visible
10 Dec 8.6 07:44:49 10° NW 07:50:10 27° N 07:55:39 10° ENE visible
11 Dec 8.6 06:54:07 20° NNW 06:56:37 25° N 07:01:53 10° ENE visible
12 Dec 8.7 06:03:32 23° NNE 06:03:32 23° NNE 06:08:03 10° ENE visible
12 Dec 8.6 07:50:56 10° WNW 07:56:14 26° N 08:01:41 10° NE visible
13 Dec 9.4 05:12:59 14° NE 05:12:59 14° NE 05:14:10 10° ENE visible
13 Dec 8.5 06:59:52 20° NW 07:02:42 27° N 07:08:04 10° NE visible
14 Dec 8.5 06:09:22 26° N 06:09:22 26° N 06:14:25 10° ENE visible
14 Dec 8.7 07:57:20 10° WNW 08:02:19 23° N 08:07:23 10° NE visible
15 Dec 9.2 05:18:57 17° NE 05:18:57 17° NE 05:20:45 10° ENE visible
15 Dec 8.5 07:05:51 18° NW 07:08:47 25° N 07:13:59 10° NE visible
